| time (UTC) | temp F | wind direction | speed MPH | gust MPH | rain 1hr in | rain 24hr in | rain mn in | humidity % | barometer mb |
| 20260904210016 | 76 | 172 | 4.0 | 11.0 | 0.00 | 0.43 | 0.43 | 84 | 1012.9 |
| 20260904205510 | 77 | 137 | 4.0 | 11.0 | 0.00 | 0.43 | 0.43 | 83 | 1013.0 |
| 20260904205010 | 77 | 132 | 4.0 | 9.0 | 0.00 | 0.43 | 0.43 | 83 | 1013.0 |
| 20260904204528 | 77 | 145 | 3.0 | 9.0 | 0.00 | 0.43 | 0.43 | 84 | 1013.2 |
| 20260904204003 | 77 | 111 | 3.0 | 7.0 | 0.00 | 0.43 | 0.43 | 84 | 1013.6 |
| 20260904203502 | 77 | 155 | 3.0 | 4.0 | 0.00 | 0.43 | 0.43 | 1014.0 | |
| 20260904203004 | 78 | 94 | 1.0 | 2.0 | 0.00 | 0.43 | 0.43 | 84 | 1014.7 |
| 20260904202503 | 78 | 164 | 0.0 | 3.0 | 0.00 | 0.43 | 0.43 | 84 | 1015.0 |
| 20260904202003 | 78 | 105 | 0.0 | 3.0 | 0.00 | 0.43 | 0.43 | 83 | 1015.3 |
| 20260904201516 | 79 | 138 | 1.0 | 2.0 | 0.00 | 0.43 | 0.43 | 82 | 1015.5 |
| 20260904201006 | 79 | 138 | 1.0 | 2.0 | 0.00 | 0.43 | 0.43 | 80 | 1015.7 |
| 20260904200507 | 79 | 138 | 0.0 | 2.0 | 0.00 | 0.43 | 0.43 | 79 | 1015.9 |
| 20260904200016 | 79 | 138 | 0.0 | 2.0 | 0.00 | 0.43 | 0.43 | 79 | 1015.9 |
| 20260904195508 | 79 | 138 | 0.0 | 2.0 | 0.00 | 0.43 | 0.43 | 79 | 1016.0 |
| 20260904195007 | 79 | 118 | 0.0 | 2.0 | 0.00 | 0.43 | 0.43 | 78 | 1016.2 |
| 20260904194550 | 79 | 30 | 0.0 | 3.0 | 0.00 | 0.43 | 0.43 | 79 | 1016.2 |
| 20260904194011 | 79 | 328 | 0.0 | 3.0 | 0.00 | 0.43 | 0.43 | 79 | 1016.3 |
| 20260904193512 | 79 | 337 | 1.0 | 3.0 | 0.00 | 0.43 | 0.43 | 79 | 1016.4 |
| 20260904193037 | 80 | 352 | 2.0 | 3.0 | 0.00 | 0.43 | 0.43 | 78 | 1016.3 |
| 20260904192502 | 80 | 333 | 1.0 | 5.0 | 0.00 | 0.43 | 0.43 | 79 | 1016.3 |
| 20260904192005 | 80 | 360 | 2.0 | 11.0 | 0.00 | 0.43 | 0.43 | 76 | 1016.3 |
| 20260904191506 | 81 | 57 | 3.0 | 11.0 | 0.00 | 0.43 | 0.43 | 77 | 1016.5 |
| 20260904191003 | 81 | 344 | 3.0 | 12.0 | 0.00 | 0.43 | 0.43 | 78 | 1016.6 |
| 20260904190508 | 81 | 17 | 5.0 | 12.0 | 0.00 | 0.43 | 0.43 | 78 | 1016.8 |
| 20260904190012 | 81 | 337 | 4.0 | 9.0 | 0.00 | 0.43 | 0.43 | 78 | 1017.0 |
| 20260904185508 | 81 | 35 | 6.0 | 10.0 | 0.00 | 0.43 | 0.43 | 78 | 1017.0 |
| 20260904185010 | 81 | 67 | 4.0 | 10.0 | 0.00 | 0.43 | 0.43 | 79 | 1017.1 |
| 20260904184518 | 80 | 244 | 3.0 | 10.0 | 0.00 | 0.43 | 0.43 | 81 | 1017.1 |
| 20260904184010 | 80 | 14 | 2.0 | 10.0 | 0.00 | 0.43 | 0.43 | 81 | 1017.3 |
| 20260904183511 | 80 | 26 | 4.0 | 12.0 | 0.00 | 0.43 | 0.43 | 82 | 1017.3 |
| 20260904183028 | 80 | 35 | 5.0 | 11.0 | 0.00 | 0.43 | 0.43 | 81 | 1017.1 |
| 20260904182512 | 79 | 274 | 4.0 | 11.0 | 0.00 | 0.43 | 0.43 | 86 | 1017.1 |
| 20260904182016 | 79 | 360 | 7.0 | 11.0 | 0.00 | 0.43 | 0.43 | 87 | 1017.1 |
| 20260904181503 | 78 | 57 | 6.0 | 11.0 | 0.00 | 0.43 | 0.43 | 87 | 1017.2 |
| 20260904181002 | 78 | 43 | 3.0 | 11.0 | 0.00 | 0.43 | 0.43 | 89 | 1017.4 |
| 20260904180503 | 78 | 51 | 4.0 | 15.0 | 0.00 | 0.43 | 0.43 | 88 | 1017.3 |
| 20260904180008 | 78 | 13 | 4.0 | 15.0 | 0.01 | 0.43 | 0.43 | 90 | 1017.4 |
| 20260904175507 | 78 | 360 | 5.0 | 9.0 | 0.01 | 0.43 | 0.43 | 88 | 1017.5 |
| 20260904175008 | 78 | 265 | 1.0 | 4.0 | 0.02 | 0.43 | 0.43 | 91 | 1017.3 |
| 20260904174517 | 77 | 5 | 1.0 | 3.0 | 0.02 | 0.43 | 0.43 | 92 | 1017.3 |
| 20260904174009 | 77 | 263 | 2.0 | 3.0 | 0.02 | 0.43 | 0.43 | 91 | 1017.3 |
| 20260904173508 | 77 | 266 | 1.0 | 7.0 | 0.03 | 0.43 | 0.43 | 90 | 1017.1 |
| 20260904173033 | 77 | 290 | 1.0 | 7.0 | 0.04 | 0.43 | 0.43 | 91 | 1017.2 |
| 20260904172511 | 77 | 248 | 2.0 | 4.0 | 0.26 | 0.43 | 0.43 | 95 | 1017.4 |
| 20260904172013 | 77 | 323 | 0.0 | 2.0 | 0.39 | 0.43 | 0.43 | 96 | 1017.1 |
| 20260904171539 | 76 | 28 | 0.0 | 2.0 | 0.39 | 0.43 | 0.43 | 96 | 1016.8 |
| 20260904171015 | 75 | 102 | 0.0 | 2.0 | 0.39 | 0.43 | 0.43 | 95 | 1016.9 |
| 20260904170503 | 75 | 102 | 0.0 | 2.0 | 0.39 | 0.43 | 0.43 | 94 | 1016.9 |
| 20260904170010 | 75 | 102 | 0.0 | 6.0 | 0.38 | 0.42 | 0.42 | 94 | 1016.9 |
| 20260904165503 | 75 | 75 | 2.0 | 6.0 | 0.38 | 0.42 | 0.42 | 94 | 1017.0 |
| 20260904165008 | 75 | 135 | 2.0 | 4.0 | 0.37 | 0.41 | 0.41 | 93 | 1017.2 |
| 20260904164516 | 75 | 328 | 0.0 | 3.0 | 0.37 | 0.41 | 0.41 | 93 | 1017.2 |
| 20260904164009 | 75 | 66 | 0.0 | 3.0 | 0.37 | 0.41 | 0.41 | 92 | 1017.4 |
| 20260904163506 | 76 | 297 | 0.0 | 7.0 | 0.36 | 0.40 | 0.40 | 90 | 1017.6 |
| 20260904163018 | 77 | 348 | 3.0 | 12.0 | 0.35 | 0.39 | 0.39 | 86 | 1017.8 |
| 20260904162510 | 78 | 148 | 7.0 | 11.0 | 0.13 | 0.17 | 0.17 | 85 | 1018.5 |
| 20260904162017 | 79 | 218 | 1.0 | 6.0 | 0.00 | 0.04 | 0.04 | 84 | 1018.0 |
| 20260904161529 | 80 | 176 | 2.0 | 6.0 | 0.00 | 0.04 | 0.04 | 82 | 1017.8 |
| 20260904161012 | 80 | 165 | 1.0 | 4.0 | 0.00 | 0.04 | 0.04 | 83 | 1017.8 |
| 20260904160514 | 81 | 136 | 1.0 | 2.0 | 0.00 | 0.04 | 0.04 | 82 | 1018.0 |
| 20260904160036 | 81 | 207 | 1.0 | 2.0 | 0.00 | 0.04 | 0.04 | 81 | 1018.0 |
| 20260904155506 | 81 | 213 | 0.0 | 4.0 | 0.00 | 0.04 | 0.04 | 81 | 1017.8 |
| 20260904155005 | 81 | 213 | 0.0 | 4.0 | 0.00 | 0.04 | 0.04 | 83 | 1017.6 |
| 20260904154512 | 80 | 48 | 1.0 | 3.0 | 0.00 | 0.04 | 0.04 | 84 | 1017.4 |
| 20260904154007 | 80 | 352 | 0.0 | 3.0 | 0.00 | 0.04 | 0.04 | 1017.3 | |
| 20260904153506 | 80 | 336 | 2.0 | 3.0 | 0.00 | 0.04 | 0.04 | 85 | 1017.4 |
| 20260904153025 | 80 | 60 | 0.0 | 2.0 | 0.00 | 0.04 | 0.04 | 85 | 1017.3 |
| 20260904152510 | 80 | 60 | 0.0 | 2.0 | 0.00 | 0.04 | 0.04 | 85 | 1017.6 |
| 20260904152012 | 80 | 60 | 0.0 | 2.0 | 0.02 | 0.04 | 0.04 | 83 | 1017.6 |
| 20260904151538 | 80 | 60 | 0.0 | 5.0 | 0.02 | 0.04 | 0.04 | 86 | 1017.5 |
| 20260904151012 | 81 | 60 | 1.0 | 5.0 | 0.02 | 0.04 | 0.04 | 84 | 1017.2 |
| 20260904150516 | 81 | 5 | 0.0 | 2.0 | 0.03 | 0.04 | 0.04 | 86 | 1017.3 |
| 20260904150036 | 80 | 151 | 0.0 | 2.0 | 0.04 | 0.04 | 0.04 | 87 | 1016.9 |
| 20260904145515 | 80 | 342 | 0.0 | 2.0 | 0.04 | 0.04 | 0.04 | 86 | 1016.8 |
| 20260904145018 | 80 | 287 | 1.0 | 3.0 | 0.04 | 0.04 | 0.04 | 86 | 1016.8 |
| 20260904144533 | 79 | 272 | 1.0 | 3.0 | 0.04 | 0.04 | 0.04 | 88 | 1016.8 |
| 20260904144006 | 79 | 156 | 1.0 | 2.0 | 0.04 | 0.04 | 0.04 | 88 | 1016.7 |
| 20260904143508 | 78 | 306 | 0.0 | 2.0 | 0.04 | 0.04 | 0.04 | 89 | 1016.8 |
| 20260904143016 | 78 | 158 | 0.0 | 3.0 | 0.04 | 0.04 | 0.04 | 91 | 1016.8 |
| 20260904142509 | 78 | 146 | 1.0 | 3.0 | 0.04 | 0.04 | 0.04 | 91 | 1016.8 |
| 20260904142013 | 78 | 263 | 1.0 | 2.0 | 0.02 | 0.02 | 0.02 | 90 | 1016.8 |
| 20260904141525 | 78 | 5 | 0.0 | 3.0 | 0.02 | 0.02 | 0.02 | 90 | 1016.6 |
| 20260904141019 | 78 | 350 | 1.0 | 3.0 | 0.02 | 0.02 | 0.02 | 89 | 1016.2 |
| 20260904140512 | 78 | 60 | 1.0 | 6.0 | 0.01 | 0.01 | 0.01 | 88 | 1016.6 |
| 20260904140027 | 78 | 298 | 1.0 | 6.0 | 0.00 | 0.00 | 0.00 | 88 | 1016.8 |
| 20260904135515 | 79 | 259 | 2.0 | 6.0 | 0.00 | 0.00 | 0.00 | 86 | 1016.9 |
| 20260904135015 | 79 | 306 | 2.0 | 6.0 | 0.00 | 0.00 | 0.00 | 85 | 1016.7 |
| 20260904134530 | 80 | 294 | 2.0 | 4.0 | 0.00 | 0.00 | 0.00 | 84 | 1016.6 |
| 20260904134015 | 80 | 242 | 2.0 | 4.0 | 0.00 | 0.00 | 0.00 | 84 | 1016.5 |
| 20260904133518 | 80 | 334 | 0.0 | 4.0 | 0.00 | 0.00 | 0.00 | 85 | 1016.6 |
| 20260904133015 | 79 | 275 | 1.0 | 4.0 | 0.00 | 0.00 | 0.00 | 86 | 1016.1 |
| 20260904132508 | 79 | 186 | 1.0 | 4.0 | 0.00 | 0.00 | 0.00 | 87 | 1016.1 |
| 20260904132010 | 78 | 134 | 2.0 | 4.0 | 0.00 | 0.00 | 0.00 | 86 | 1016.1 |
| 20260904131523 | 78 | 145 | 1.0 | 3.0 | 0.00 | 0.00 | 0.00 | 88 | 1016.3 |
| 20260904131011 | 77 | 146 | 2.0 | 3.0 | 0.00 | 0.00 | 0.00 | 88 | 1016.3 |
| 20260904130511 | 76 | 128 | 1.0 | 2.0 | 0.00 | 0.00 | 0.00 | 89 | 1016.3 |
| 20260904130030 | 76 | 136 | 0.0 | 2.0 | 0.00 | 0.00 | 0.00 | 91 | 1016.3 |
| 20260904125515 | 75 | 136 | 1.0 | 2.0 | 0.00 | 0.00 | 0.00 | 91 | 1016.4 |
| 20260904125015 | 75 | 136 | 0.0 | 2.0 | 0.00 | 0.00 | 0.00 | 92 | 1016.4 |
| 20260904124535 | 74 | 136 | 0.0 | 2.0 | 0.00 | 0.00 | 0.00 | 92 | 1016.5 |
| 20260904124019 | 73 | 136 | 0.0 | 2.0 | 0.00 | 0.00 | 0.00 | 93 | 1016.5 |
| 20260904123522 | 73 | 136 | 0.0 | 2.0 | 0.00 | 0.00 | 0.00 | 94 | 1016.5 |
| 20260904123035 | 73 | 188 | 1.0 | 1.0 | 0.00 | 0.00 | 0.00 | 95 | 1016.4 |
| 20260904122520 | 72 | 188 | 1.0 | 1.0 | 0.00 | 0.00 | 0.00 | 96 | 1016.6 |
| 20260904122012 | 72 | 188 | 1.0 | 2.0 | 0.00 | 0.00 | 0.00 | 96 | 1016.4 |
| 20260904121527 | 72 | 188 | 0.0 | 2.0 | 0.00 | 0.00 | 0.00 | 97 | 1016.6 |
| 20260904121015 | 71 | 188 | 0.0 | 2.0 | 0.00 | 0.00 | 0.00 | 97 | 1016.5 |
| 20260904120512 | 71 | 188 | 0.0 | 2.0 | 0.00 | 0.00 | 0.00 | 97 | 1016.6 |
| 20260904120024 | 70 | 188 | 0.0 | 2.0 | 0.00 | 0.00 | 0.00 | 97 | 1016.6 |
| 20260904115512 | 70 | 188 | 0.0 | 0.0 | 0.00 | 0.00 | 0.00 | 97 | 1016.6 |
| 20260904115014 | 70 | 188 | 0.0 | 0.0 | 0.00 | 0.00 | 0.00 | 97 | 1016.4 |
| 20260904114532 | 69 | 188 | 0.0 | 1.0 | 0.00 | 0.00 | 0.00 | 96 | 1016.4 |
| 20260904114015 | 69 | 188 | 0.0 | 1.0 | 0.00 | 0.00 | 0.00 | 96 | 1016.1 |
| 20260904113514 | 69 | 188 | 0.0 | 1.0 | 0.00 | 0.00 | 0.00 | 96 | 1015.9 |
| 20260904113038 | 70 | 188 | 0.0 | 2.0 | 0.00 | 0.00 | 0.00 | 96 | 1015.7 |
| 20260904112517 | 69 | 188 | 0.0 | 2.0 | 0.00 | 0.00 | 0.00 | 96 | 1015.7 |
| 20260904112018 | 70 | 188 | 0.0 | 0.0 | 0.00 | 0.00 | 0.00 | 96 | 1015.6 |
| 20260904111534 | 70 | 188 | 0.0 | 0.0 | 0.00 | 0.00 | 0.00 | 96 | 1015.5 |
| 20260904111024 | 70 | 188 | 0.0 | 0.0 | 0.00 | 0.00 | 0.00 | 96 | 1015.6 |
| 20260904110511 | 70 | 188 | 0.0 | 0.0 | 0.00 | 0.00 | 0.00 | 96 | 1015.5 |
| 20260904110021 | 70 | 188 | 0.0 | 2.0 | 0.00 | 0.00 | 0.00 | 96 | 1015.4 |
| 20260904105510 | 70 | 188 | 0.0 | 2.0 | 0.00 | 0.00 | 0.00 | 96 | 1015.5 |
| 20260904105014 | 69 | 188 | 0.0 | 2.0 | 0.00 | 0.00 | 0.00 | 96 | 1015.4 |
| 20260904104507 | 69 | 188 | 0.0 | 2.0 | 0.00 | 0.00 | 0.00 | 96 | 1015.6 |
| 20260904104001 | 69 | 188 | 0.0 | 2.0 | 0.00 | 0.00 | 0.00 | 96 | 1015.4 |
| 20260904103501 | 69 | 188 | 0.0 | 2.0 | 0.00 | 0.00 | 0.00 | 96 | 1015.2 |
| 20260904103008 | 69 | 188 | 0.0 | 2.0 | 0.00 | 0.00 | 0.00 | 96 | 1015.3 |
| 20260904102501 | 69 | 188 | 0.0 | 2.0 | 0.00 | 0.00 | 0.00 | 96 | 1015.3 |
| 20260904102004 | 69 | 188 | 0.0 | 2.0 | 0.00 | 0.00 | 0.00 | 95 | 1015.4 |
| 20260904101509 | 69 | 188 | 0.0 | 2.0 | 0.00 | 0.00 | 0.00 | 95 | 1015.3 |
| 20260904101004 | 69 | 188 | 0.0 | 0.0 | 0.00 | 0.00 | 0.00 | 95 | 1015.2 |
| 20260904100504 | 69 | 188 | 0.0 | 0.0 | 0.00 | 0.00 | 0.00 | 95 | 1015.2 |
| 20260904100008 | 69 | 188 | 0.0 | 0.0 | 0.00 | 0.00 | 0.00 | 94 | 1015.2 |
| 20260904095502 | 69 | 188 | 0.0 | 0.0 | 0.00 | 0.00 | 0.00 | 94 | 1015.2 |
| 20260904095002 | 69 | 188 | 0.0 | 0.0 | 0.00 | 0.00 | 0.00 | 95 | 1015.3 |
| 20260904094509 | 70 | 188 | 0.0 | 0.0 | 0.00 | 0.00 | 0.00 | 94 | 1015.3 |
| 20260904094001 | 70 | 188 | 0.0 | 0.0 | 0.00 | 0.00 | 0.00 | 94 | 1015.3 |
| 20260904093501 | 70 | 188 | 0.0 | 0.0 | 0.00 | 0.00 | 0.00 | 94 | 1015.3 |
| 20260904093008 | 70 | 188 | 0.0 | 0.0 | 0.00 | 0.00 | 0.00 | 94 | 1015.3 |
| 20260904092507 | 70 | 188 | 0.0 | 0.0 | 0.00 | 0.00 | 0.00 | 94 | 1015.2 |
| 20260904092006 | 70 | 188 | 0.0 | 0.0 | 0.00 | 0.00 | 0.00 | 94 | 1015.2 |
| 20260904091509 | 70 | 188 | 0.0 | 1.0 | 0.00 | 0.00 | 0.00 | 93 | 1015.1 |
| 20260904091005 | 70 | 188 | 0.0 | 2.0 | 0.00 | 0.00 | 0.00 | 93 | 1015.1 |
| 20260904090503 | 71 | 188 | 0.0 | 2.0 | 0.00 | 0.00 | 0.00 | 93 | 1015.1 |
| 20260904090010 | 71 | 188 | 0.0 | 2.0 | 0.00 | 0.00 | 0.00 | 93 | 1014.9 |
| 20260904085506 | 71 | 188 | 0.0 | 2.0 | 0.00 | 0.00 | 0.00 | 94 | 1014.9 |
| 20260904085009 | 71 | 188 | 0.0 | 2.0 | 0.00 | 0.00 | 0.00 | 94 | 1014.8 |
| 20260904084509 | 71 | 188 | 0.0 | 2.0 | 0.00 | 0.00 | 0.00 | 94 | 1015.0 |
| 20260904084006 | 70 | 188 | 0.0 | 2.0 | 0.00 | 0.00 | 0.00 | 94 | 1015.1 |
| 20260904083506 | 70 | 188 | 0.0 | 2.0 | 0.00 | 0.00 | 0.00 | 94 | 1015.1 |
| 20260904083005 | 70 | 188 | 0.0 | 2.0 | 0.00 | 0.00 | 0.00 | 94 | 1015.0 |
| 20260904082504 | 70 | 188 | 0.0 | 0.0 | 0.00 | 0.00 | 0.00 | 93 | 1015.0 |
| 20260904082004 | 70 | 188 | 0.0 | 0.0 | 0.00 | 0.00 | 0.00 | 93 | 1015.0 |
| 20260904081514 | 71 | 188 | 0.0 | 0.0 | 0.00 | 0.00 | 0.00 | 93 | 1015.0 |
| 20260904081004 | 71 | 188 | 0.0 | 0.0 | 0.00 | 0.00 | 0.00 | 93 | 1015.1 |
| 20260904080506 | 71 | 188 | 0.0 | 1.0 | 0.00 | 0.00 | 0.00 | 93 | 1015.3 |
| 20260904080015 | 71 | 188 | 0.0 | 2.0 | 0.00 | 0.00 | 0.00 | 93 | 1015.3 |
| 20260904075503 | 71 | 188 | 0.0 | 2.0 | 0.00 | 0.00 | 0.00 | 93 | 1015.3 |
| 20260904075005 | 71 | 188 | 0.0 | 2.0 | 0.00 | 0.00 | 0.00 | 93 | 1015.3 |
| 20260904074521 | 71 | 188 | 0.0 | 2.0 | 0.00 | 0.00 | 0.00 | 93 | 1015.2 |
| 20260904074006 | 71 | 188 | 0.0 | 2.0 | 0.00 | 0.00 | 0.00 | 92 | 1015.4 |
| 20260904073508 | 71 | 188 | 0.0 | 0.0 | 0.00 | 0.00 | 0.00 | 92 | 1015.4 |
| 20260904073015 | 71 | 188 | 0.0 | 0.0 | 0.00 | 0.00 | 0.00 | 92 | 1015.5 |
| 20260904072506 | 71 | 188 | 0.0 | 0.0 | 0.00 | 0.00 | 0.00 | 92 | 1015.6 |
| 20260904072004 | 71 | 188 | 0.0 | 2.0 | 0.00 | 0.00 | 0.00 | 92 | 1015.5 |
| 20260904071507 | 72 | 188 | 0.0 | 2.0 | 0.00 | 0.00 | 0.00 | 91 | 1015.5 |
| 20260904071008 | 72 | 188 | 0.0 | 2.0 | 0.00 | 0.00 | 0.00 | 92 | 1015.7 |
| 20260904070504 | 72 | 188 | 0.0 | 2.0 | 0.00 | 0.00 | 0.00 | 92 | 1015.8 |
| 20260904070017 | 71 | 188 | 0.0 | 2.0 | 0.00 | 0.00 | 0.00 | 92 | 1015.6 |
| 20260904065511 | 71 | 188 | 1.0 | 2.0 | 0.00 | 0.00 | 0.00 | 92 | 1015.6 |
| 20260904065007 | 71 | 222 | 0.0 | 2.0 | 0.00 | 0.00 | 0.00 | 92 | 1015.6 |
| 20260904064517 | 71 | 222 | 0.0 | 2.0 | 0.00 | 0.00 | 0.00 | 92 | 1015.8 |
| 20260904064005 | 71 | 223 | 0.0 | 2.0 | 0.00 | 0.00 | 0.00 | 92 | 1015.9 |
| 20260904063508 | 71 | 144 | 0.0 | 2.0 | 0.00 | 0.00 | 0.00 | 92 | 1015.9 |
| 20260904063016 | 72 | 265 | 0.0 | 2.0 | 0.00 | 0.00 | 0.00 | 92 | 1015.7 |
| 20260904062508 | 72 | 235 | 0.0 | 2.0 | 0.00 | 0.00 | 0.00 | 92 | 1015.7 |
| 20260904062012 | 71 | 165 | 1.0 | 3.0 | 0.00 | 0.00 | 0.00 | 92 | 1015.6 |
| 20260904061522 | 71 | 167 | 1.0 | 3.0 | 0.00 | 0.00 | 0.00 | 92 | 1015.9 |
| 20260904061006 | 71 | 191 | 0.0 | 2.0 | 0.00 | 0.00 | 0.00 | 92 | 1016.0 |
| 20260904060506 | 71 | 191 | 0.0 | 2.0 | 0.00 | 0.00 | 0.00 | 93 | 1016.0 |
| 20260904060010 | 71 | 191 | 1.0 | 2.0 | 0.00 | 0.00 | 0.00 | 93 | 1016.0 |
| 20260904055507 | 71 | 199 | 0.0 | 2.0 | 0.00 | 0.00 | 0.00 | 93 | 1016.0 |
| 20260904055007 | 71 | 199 | 0.0 | 1.0 | 0.00 | 0.00 | 0.00 | 93 | 1016.1 |
| 20260904054520 | 71 | 259 | 0.0 | 2.0 | 0.00 | 0.00 | 0.00 | 93 | 1016.3 |
| 20260904054008 | 71 | 259 | 0.0 | 2.0 | 0.00 | 0.00 | 0.00 | 93 | 1016.2 |
| 20260904053508 | 71 | 173 | 0.0 | 2.0 | 0.00 | 0.00 | 0.00 | 92 | 1016.2 |
| 20260904053023 | 71 | 173 | 0.0 | 2.0 | 0.00 | 0.00 | 0.00 | 92 | 1016.2 |
| 20260904052510 | 72 | 173 | 0.0 | 2.0 | 0.00 | 0.00 | 0.00 | 92 | 1016.3 |
| 20260904052009 | 72 | 173 | 0.0 | 2.0 | 0.00 | 0.00 | 0.00 | 92 | 1016.3 |
| 20260904051528 | 72 | 173 | 0.0 | 2.0 | 0.00 | 0.00 | 0.00 | 92 | 1016.2 |
| 20260904051009 | 72 | 173 | 0.0 | 2.0 | 0.00 | 0.00 | 0.00 | 92 | 1016.3 |
| 20260904050509 | 72 | 173 | 0.0 | 2.0 | 0.00 | 0.00 | 0.00 | 92 | 1016.4 |
| 20260904050017 | 72 | 173 | 0.0 | 2.0 | 0.00 | 0.00 | 0.00 | 92 | 1016.4 |
| 20260904045507 | 72 | 173 | 0.0 | 2.0 | 0.00 | 0.00 | 0.00 | 92 | 1016.4 |
| 20260904045011 | 72 | 173 | 0.0 | 2.0 | 0.00 | 0.00 | 0.00 | 92 | 1016.3 |
| 20260904044526 | 72 | 173 | 0.0 | 0.0 | 0.00 | 0.00 | 0.00 | 92 | 1016.3 |
| 20260904044027 | 72 | 173 | 0.0 | 1.0 | 0.00 | 0.00 | 0.00 | 91 | 1016.3 |
| 20260904043513 | 72 | 173 | 0.0 | 2.0 | 0.00 | 0.00 | 0.00 | 92 | 1016.4 |
| 20260904043021 | 72 | 173 | 0.0 | 2.0 | 0.00 | 0.00 | 0.00 | 92 | 1016.3 |
| 20260904042510 | 72 | 173 | 0.0 | 0.0 | 0.00 | 0.00 | 0.00 | 91 | 1016.3 |
| 20260904042010 | 72 | 173 | 0.0 | 2.0 | 0.00 | 0.00 | 0.00 | 91 | 1016.3 |
| 20260904041534 | 72 | 173 | 0.0 | 2.0 | 0.00 | 0.00 | 0.00 | 91 | 1016.2 |
| 20260904041009 | 72 | 173 | 0.0 | 2.0 | 0.00 | 0.00 | 0.00 | 91 | 1016.2 |
| 20260904040511 | 72 | 173 | 0.0 | 2.0 | 0.00 | 0.00 | 0.00 | 91 | 1016.2 |
| 20260904040018 | 73 | 154 | 0.0 | 2.0 | 0.00 | 0.00 | 0.00 | 91 | 1016.1 |
| 20260904035510 | 73 | 283 | 0.0 | 1.0 | 0.00 | 0.00 | 0.00 | 91 | 1016.2 |
| 20260904035011 | 73 | 283 | 0.0 | 2.0 | 0.00 | 0.00 | 0.00 | 91 | 1016.1 |
| 20260904034524 | 73 | 283 | 0.0 | 2.0 | 0.00 | 0.00 | 0.00 | 91 | 1016.2 |
| 20260904034008 | 73 | 283 | 0.0 | 2.0 | 0.00 | 0.00 | 0.00 | 91 | 1016.2 |
| 20260904033508 | 73 | 283 | 0.0 | 2.0 | 0.00 | 0.00 | 0.00 | 91 | 1016.1 |
| 20260904033019 | 73 | 283 | 0.0 | 2.0 | 0.00 | 0.00 | 0.00 | 91 | 1016.2 |
| 20260904032508 | 73 | 283 | 0.0 | 0.0 | 0.00 | 0.00 | 0.00 | 91 | 1016.2 |
| 20260904032012 | 73 | 283 | 0.0 | 1.0 | 0.00 | 0.00 | 0.00 | 91 | 1016.2 |
| 20260904031527 | 73 | 283 | 0.0 | 2.0 | 0.00 | 0.00 | 0.00 | 91 | 1016.2 |
| 20260904031014 | 73 | 283 | 0.0 | 2.0 | 0.00 | 0.00 | 0.00 | 91 | 1016.4 |
| 20260904030509 | 73 | 283 | 0.0 | 2.0 | 0.00 | 0.00 | 0.00 | 91 | 1016.4 |
| 20260904030028 | 73 | 283 | 0.0 | 2.0 | 0.00 | 0.00 | 0.00 | 90 | 1016.2 |
| 20260904025512 | 73 | 283 | 0.0 | 2.0 | 0.00 | 0.00 | 0.00 | 90 | 1016.4 |
| 20260904025012 | 73 | 283 | 0.0 | 2.0 | 0.00 | 0.00 | 0.00 | 90 | 1016.5 |
| 20260904024524 | 73 | 283 | 0.0 | 2.0 | 0.00 | 0.00 | 0.00 | 90 | 1016.5 |
| 20260904024011 | 73 | 283 | 0.0 | 0.0 | 0.00 | 0.00 | 0.00 | 89 | 1016.5 |
| 20260904023515 | 73 | 283 | 0.0 | 0.0 | 0.00 | 0.00 | 0.00 | 89 | 1016.6 |
| 20260904023019 | 73 | 283 | 0.0 | 2.0 | 0.00 | 0.00 | 0.00 | 89 | 1016.5 |
| 20260904022511 | 74 | 283 | 0.0 | 2.0 | 0.00 | 0.00 | 0.00 | 88 | 1016.4 |
| 20260904022011 | 74 | 283 | 0.0 | 2.0 | 0.00 | 0.00 | 0.00 | 88 | 1016.4 |
| 20260904021527 | 74 | 283 | 0.0 | 2.0 | 0.00 | 0.00 | 0.00 | 87 | 1016.4 |
| 20260904021010 | 74 | 283 | 0.0 | 2.0 | 0.00 | 0.00 | 0.00 | 87 | 1016.5 |
| 20260904020513 | 74 | 283 | 0.0 | 2.0 | 0.00 | 0.00 | 0.00 | 86 | 1016.4 |
| 20260904020039 | 74 | 283 | 0.0 | 1.0 | 0.00 | 0.00 | 0.00 | 86 | 1016.4 |
| 20260904015514 | 75 | 283 | 0.0 | 2.0 | 0.00 | 0.00 | 0.00 | 86 | 1016.4 |
| 20260904015011 | 75 | 283 | 0.0 | 2.0 | 0.00 | 0.00 | 0.00 | 85 | 1016.5 |
| 20260904014510 | 75 | 283 | 0.0 | 2.0 | 0.00 | 0.00 | 0.00 | 85 | 1016.5 |
| 20260904014006 | 75 | 283 | 0.0 | 2.0 | 0.00 | 0.00 | 0.00 | 84 | 1016.5 |
| 20260904013507 | 75 | 283 | 0.0 | 2.0 | 0.00 | 0.00 | 0.00 | 84 | 1016.6 |
| 20260904013017 | 76 | 283 | 0.0 | 2.0 | 0.00 | 0.00 | 0.00 | 83 | 1016.4 |
| 20260904012509 | 76 | 283 | 0.0 | 2.0 | 0.00 | 0.00 | 0.00 | 82 | 1016.4 |
| 20260904012009 | 76 | 221 | 0.0 | 4.0 | 0.00 | 0.00 | 0.00 | 82 | 1016.5 |
| 20260904011524 | 76 | 288 | 0.0 | 4.0 | 0.00 | 0.00 | 0.00 | 82 | 1016.6 |
| 20260904011010 | 76 | 264 | 1.0 | 5.0 | 0.00 | 0.00 | 0.00 | 81 | 1016.3 |
| 20260904010514 | 77 | 25 | 1.0 | 5.0 | 0.00 | 0.00 | 0.00 | 81 | 1016.2 |
| 20260904010028 | 77 | 350 | 2.0 | 6.0 | 0.00 | 0.00 | 0.00 | 79 | 1016.2 |
| 20260904005512 | 77 | 35 | 1.0 | 6.0 | 0.00 | 0.00 | 0.00 | 79 | 1016.2 |
| 20260904005013 | 77 | 352 | 2.0 | 10.0 | 0.00 | 0.00 | 0.00 | 1016.4 | |
| 20260904004533 | 78 | 19 | 2.0 | 10.0 | 0.00 | 0.00 | 0.00 | 1016.2 | |
| 20260904004011 | 79 | 338 | 3.0 | 6.0 | 0.00 | 0.00 | 0.00 | 1016.1 | |
| 20260904003508 | 80 | 65 | 1.0 | 13.0 | 0.00 | 0.00 | 0.00 | 74 | 1016.1 |
| 20260904003014 | 80 | 347 | 3.0 | 13.0 | 0.00 | 0.00 | 0.00 | 74 | 1016.0 |
| 20260904002508 | 81 | 348 | 1.0 | 3.0 | 0.00 | 0.00 | 0.00 | 75 | 1016.0 |
| 20260904002010 | 82 | 46 | 1.0 | 9.0 | 0.00 | 0.00 | 0.00 | 75 | 1015.6 |
| 20260904001524 | 82 | 24 | 3.0 | 9.0 | 0.00 | 0.00 | 0.00 | 74 | 1015.6 |
| 20260904001011 | 83 | 155 | 0.0 | 2.0 | 0.00 | 0.00 | 0.00 | 77 | 1015.5 |
| 20260904000511 | 84 | 155 | 0.0 | 2.0 | 0.00 | 0.00 | 0.00 | 76 | 1015.4 |
| 20260904000028 | 84 | 155 | 0.0 | 2.0 | 0.00 | 0.00 | 0.00 | 73 | 1015.6 |
| 20260903235515 | 85 | 155 | 0.0 | 2.0 | 0.00 | 0.00 | 0.00 | 72 | 1015.6 |
| 20260903235018 | 86 | 155 | 0.0 | 2.0 | 0.00 | 0.00 | 0.00 | 69 | 1015.7 |
| 20260903234530 | 86 | 155 | 0.0 | 2.0 | 0.00 | 0.00 | 0.00 | 69 | 1015.6 |
| 20260903234014 | 86 | 155 | 0.0 | 2.0 | 0.00 | 0.00 | 0.00 | 68 | 1015.6 |
| 20260903233514 | 87 | 155 | 1.0 | 3.0 | 0.00 | 0.00 | 0.00 | 67 | 1015.5 |
| 20260903233034 | 87 | 178 | 1.0 | 3.0 | 0.00 | 0.00 | 0.00 | 67 | 1015.6 |
| 20260903232506 | 87 | 277 | 0.0 | 3.0 | 0.00 | 0.00 | 0.00 | 67 | 1015.5 |
| 20260903232008 | 87 | 228 | 1.0 | 3.0 | 0.00 | 0.00 | 0.00 | 67 | 1015.2 |
| 20260903231518 | 88 | 231 | 0.0 | 3.0 | 0.00 | 0.00 | 0.00 | 66 | 1015.2 |
| 20260903231009 | 88 | 248 | 0.0 | 3.0 | 0.00 | 0.00 | 0.00 | 66 | 1015.2 |
| 20260903230511 | 88 | 156 | 1.0 | 4.0 | 0.00 | 0.00 | 0.00 | 65 | 1015.2 |
| 20260903230033 | 88 | 189 | 1.0 | 4.0 | 0.00 | 0.00 | 0.00 | 64 | 1015.2 |
| 20260903225513 | 89 | 192 | 1.0 | 4.0 | 0.00 | 0.00 | 0.00 | 64 | 1015.3 |
| 20260903225014 | 89 | 207 | 0.0 | 2.0 | 0.00 | 0.00 | 0.00 | 64 | 1015.4 |
| 20260903224527 | 90 | 248 | 0.0 | 2.0 | 0.00 | 0.00 | 0.00 | 63 | 1015.3 |
| 20260903224016 | 90 | 294 | 1.0 | 3.0 | 0.00 | 0.00 | 0.00 | 63 | 1015.3 |
| 20260903223517 | 90 | 268 | 1.0 | 5.0 | 0.00 | 0.00 | 0.00 | 61 | 1015.3 |
| 20260903223030 | 91 | 269 | 2.0 | 5.0 | 0.00 | 0.00 | 0.00 | 60 | 1015.2 |
| 20260903222520 | 91 | 219 | 1.0 | 5.0 | 0.00 | 0.00 | 0.00 | 60 | 1015.1 |
| 20260903222019 | 91 | 324 | 1.0 | 7.0 | 0.00 | 0.00 | 0.00 | 60 | 1015.1 |
| 20260903221538 | 91 | 215 | 1.0 | 7.0 | 0.00 | 0.00 | 0.00 | 59 | 1015.1 |
| 20260903221008 | 91 | 285 | 2.0 | 7.0 | 0.00 | 0.00 | 0.00 | 59 | 1015.2 |
| 20260903220508 | 91 | 281 | 1.0 | 4.0 | 0.00 | 0.00 | 0.00 | 58 | 1015.1 |
| 20260903220045 | 92 | 294 | 2.0 | 6.0 | 0.00 | 0.00 | 0.00 | 57 | 1015.0 |
| 20260903215510 | 92 | 313 | 2.0 | 8.0 | 0.00 | 0.00 | 0.00 | 56 | 1015.0 |
| 20260903215011 | 92 | 284 | 4.0 | 8.0 | 0.00 | 0.00 | 0.00 | 56 | 1015.0 |
| 20260903214527 | 92 | 234 | 3.0 | 9.0 | 0.00 | 0.00 | 0.00 | 56 | 1015.1 |
| 20260903214015 | 92 | 286 | 3.0 | 9.0 | 0.00 | 0.00 | 0.00 | 55 | 1015.0 |
| 20260903213516 | 92 | 269 | 2.0 | 8.0 | 0.00 | 0.00 | 0.00 | 57 | 1014.9 |
| 20260903213031 | 92 | 269 | 2.0 | 9.0 | 0.00 | 0.00 | 0.00 | 55 | 1014.9 |
| 20260903212515 | 92 | 302 | 4.0 | 9.0 | 0.00 | 0.00 | 0.00 | 55 | 1014.5 |
| 20260903212019 | 93 | 265 | 3.0 | 10.0 | 0.00 | 0.00 | 0.00 | 57 | 1014.3 |
| 20260903211533 | 93 | 300 | 2.0 | 10.0 | 0.00 | 0.00 | 0.00 | 56 | 1014.2 |
| 20260903211016 | 93 | 190 | 2.0 | 8.0 | 0.00 | 0.00 | 0.00 | 55 | 1014.2 |
| 20260903210517 | 93 | 224 | 3.0 | 10.0 | 0.00 | 0.00 | 0.00 | 55 | 1014.0 |